Home > Weather > Kamp-Lintfort > Past weeks

Flag for Germany Past Weather in Kamp-Lintfort, North Rhine-Westphalia, Germany — Yesterday and Last 2 Weeks

Now
50 °F

More clouds than sun.


Feels Like: 45 °F
Forecast: 45 / 65 °F
Wind: 13 mph from Northwest

Location: Duesseldorf

Current Time: May 24, 2016 at 8:17:52 AM

Latest Report: May 24, 2016 at 7:50 AM


Visibility: N/A

Pressure: 30.01 "Hg

Humidity: 88%

Dew Point: 46 °F

Location of Kamp-LintfortLocation

Past Weather in Kamp-Lintfort — Graph

°F

Kamp-Lintfort Temperature Yesterday

Maximum temperature yesterday: 61 °F (at 12:20 AM)
Minimum temperature yesterday: 50 °F (at 10:50 PM)
Average temperature yesterday: 55 °F

High & Low Weather Summary for the Past Weeks

 TemperatureHumidityPressure
High79 °F (May 9, 3:20 PM)100% (May 19, 3:50 AM)30.12 "Hg (May 19, 3:50 AM)
Low41 °F (May 15, 5:20 AM)27% (May 13, 4:20 PM)29.47 "Hg (May 12, 1:20 PM)
Average60 °F67%29.86 "Hg
* Reported May 9 7:20 AM — May 24 7:20 AM, Kamp-Lintfort, Weather by CustomWeather, © 2016

Note: Actual official high and low records may vary slightly from our data, if they occured in-between our weather recording intervals... More about our weather records

Advertising

Kamp-Lintfort Weather History for the Previous 24 Hours

Scroll right to see more
 ConditionsComfort  
Time TempWeatherWind HumidityBarometerVisibility
7:20 AM
Tue, May 24
50 °FMostly cloudy.13 mph88%30.01 "HgN/A
6:50 AM50 °FMostly cloudy.15 mph88%30.01 "HgN/A
6:20 AM50 °FMostly cloudy.14 mph94%30.01 "HgN/A
5:50 AM50 °FPassing clouds.14 mph94%30.01 "HgN/A
5:20 AM50 °FPartly cloudy.10 mph94%30.01 "HgN/A
4:50 AM50 °FPassing clouds.12 mph94%30.01 "HgN/A
4:20 AM50 °FPassing clouds.12 mph94%30.01 "HgN/A
3:50 AM50 °FPassing clouds.13 mph94%30.01 "HgN/A
3:20 AM50 °FPassing clouds.14 mph100%30.01 "HgN/A
2:50 AM50 °FPassing clouds.13 mph100%30.01 "Hg5 mi
2:20 AM50 °FPassing clouds.14 mph100%30.01 "Hg2 mi
1:50 AM52 °FPassing clouds.13 mph94%30.01 "HgN/A
1:20 AM52 °FPassing clouds.10 mph94%30.01 "Hg4 mi
12:50 AM52 °FPassing clouds.13 mph94%29.98 "Hg2 mi
12:20 AM50 °FPassing clouds.10 mph100%30.01 "Hg2 mi
11:50 PM
Mon, May 23
50 °FPartly cloudy.10 mph100%30.01 "Hg2 mi
11:20 PM50 °FPassing clouds.15 mph100%29.98 "Hg4 mi
10:50 PM50 °FPassing clouds.14 mph100%29.98 "HgN/A
10:20 PM52 °FDrizzle. Partly sunny.13 mph94%29.98 "Hg6 mi
9:50 PM52 °FDrizzle. Partly sunny.16 mph94%29.98 "Hg3 mi
9:20 PM52 °FDrizzle. Partly sunny.15 mph94%29.95 "Hg2 mi
8:50 PM52 °FDrizzle. Partly sunny.15 mph94%29.95 "Hg4 mi
8:20 PM52 °FDrizzle. Partly sunny.14 mph100%29.95 "Hg3 mi
7:50 PM52 °FDrizzle. Partly sunny.12 mph100%29.95 "Hg2 mi
7:20 PM52 °FDrizzle. Broken clouds.15 mph100%29.95 "Hg2 mi
6:50 PM54 °FDrizzle. Broken clouds.14 mph94%29.92 "Hg2 mi
6:20 PM54 °FDrizzle. Broken clouds.15 mph94%29.92 "HgN/A
5:50 PM54 °FDrizzle. Broken clouds.17 mph94%29.89 "HgN/A
5:20 PM54 °FDrizzle. Partly sunny.18 mph94%29.89 "Hg4 mi
4:50 PM54 °FDrizzle. Partly sunny.16 mph100%29.89 "Hg3 mi
4:20 PM55 °FDrizzle. Partly sunny.15 mph94%29.89 "Hg2 mi
3:50 PM55 °FDrizzle. Partly sunny.13 mph94%29.86 "Hg2 mi
3:20 PM55 °FDrizzle. Partly sunny.14 mph94%29.86 "Hg2 mi
2:50 PM57 °FPartly sunny.9 mph94%29.86 "HgN/A
2:20 PM55 °FDrizzle. Partly sunny.12 mph100%29.83 "Hg5 mi
1:50 PM55 °FDrizzle. Partly sunny.8 mph100%29.83 "HgN/A
1:20 PM55 °FDrizzle. More clouds than sun.8 mph100%29.83 "Hg2 mi
12:50 PM55 °FDrizzle. More clouds than sun.10 mph100%29.83 "Hg4 mi
12:20 PM54 °FDrizzle. More clouds than sun.12 mph100%29.83 "HgN/A
11:50 AM54 °FDrizzle. More clouds than sun.12 mph100%29.80 "Hg4 mi
11:20 AM54 °FDrizzle. Partly sunny.14 mph94%29.80 "HgN/A
10:50 AM54 °FDrizzle. Partly sunny.14 mph94%29.80 "HgN/A
10:20 AM54 °FDrizzle. Low clouds.14 mph94%29.80 "HgN/A
9:50 AM54 °FDrizzle. Low clouds.14 mph94%29.80 "HgN/A
9:20 AM54 °FDrizzle. Low clouds.14 mph100%29.77 "HgN/A
8:50 AM54 °FDrizzle. Low clouds.14 mph100%29.77 "HgN/A
8:20 AM55 °FDrizzle. Partly sunny.15 mph94%29.77 "Hg6 mi
Weather by CustomWeather, © 2016

See weather overviewHow to use our weather pages